Regional Weather Roundup
Issued by NWS

Home | Current Version | Previous Version | Text Only | Print | Product List | Glossary Off
Versions: 1 2 3 4 5 6 7 8 9 10 11 12 13 14 15 16 17 18 19 20 21 22 23 24 25 26 27 28 29 30 31 32 33 34 35 36 37 38 39 40 41 42 43 44 45 46 47 48 49 50

000
ASUS43 KLSX 171957
RWRMO

WEATHER SUMMARY FOR MISSOURI
NATIONAL WEATHER SERVICE SPRINGFIELD MO
300 PM CDT THU AUG 17 2017

NOTE: "FAIR" INDICATES FEW OR NO CLOUDS BELOW 12,000 FEET WITH NO
       SIGNIFICANT WEATHER AND/OR OBSTRUCTIONS TO VISIBILITY.
       CURRENT SKY AND/OR WEATHER CONDITIONS ARE NOT AVAILABLE FOR
       CHILLICOTHE AND FARMINGTON.

MOZ001>031-035>038-043-044-053-054-172100-
...NORTHERN AND WESTERN MISSOURI...

CITY           SKY/WX    TMP DP  RH WIND       PRES   REMARKS
KANSAS CTY INT MOSUNNY   82  62  50 W8        29.96F
LEE`S SUMMIT   SUNNY     81  62  52 W10       29.96F
ST JOSEPH      SUNNY     82  65  56 NW10      29.93F
CHILLICOTHE      N/A     83  61  47 W12G21    29.91F

$$
MOZ066>068-077>081-088>096-101>105-172100-
...SOUTHWEST MISSOURI...

CITY           SKY/WX    TMP DP  RH WIND       PRES   REMARKS
SPRINGFIELD    CLOUDY    82  70  66 W15       29.98F
JOPLIN         SUNNY     85  69  58 W14       30.00S
BRANSON        PTSUNNY   82  68  61 NW8       30.02S

$$
MOZ032>034-039>042-045>050-055>058-069>072-172100-
...CENTRAL MISSOURI...

CITY           SKY/WX    TMP DP  RH WIND       PRES   REMARKS
COLUMBIA       NOT AVBL
JEFFERSON CITY CLOUDY    81  68  64 W13       29.90F
ROLLA          MOSUNNY   81  68  64 W13G20    29.94F
SEDALIA        MOSUNNY   82  68  62 W9G22     29.94F
WARRENSBURG    SUNNY     81  61  50 W9        29.94F

$$
MOZ051-052-059>065-172100-
...EAST CENTRAL MISSOURI...

CITY           SKY/WX    TMP DP  RH WIND       PRES   REMARKS
ST LOUIS INTL  MOSUNNY   87  70  56 SW16G25   29.86F HX  92

$$
MOZ072>076-082>087-097>100-106>115-172100-
...SOUTH CENTRAL AND SOUTHEAST MISSOURI...

CITY           SKY/WX    TMP DP  RH WIND       PRES   REMARKS
CAPE GIRARDEAU MOSUNNY   83  72  69 SW10      29.89F
FARMINGTON     CLOUDY    84  72  65 W8        29.91F
POPLAR BLUFF   MOSUNNY   82  74  76 SW8       29.91F
WEST PLAINS    PTSUNNY   81  70  69 W10       29.98S

$$



USA.gov is the U.S. government's official web portal to all federal, state and local government web resources and services.